Lid_Strength_Index
6 7 7 7 7 6 6 6 6 6 6 7 7 7 7 7 6 9 11 9 12 19 15 12 11 14 14 15 19 14 15 15 16 16 17 16 16 14 16 14 15 14 15 18 15 16 17 9 9 13 12 8 8 8
6 7 7 7 6 6 6 6 7 7 7 7 7 7 6 6 6 8 12 9 9 13 13 10 9 8 9 9 11 13 13 13 13 17 17 16 16 16 16 20 12 16 11 13 13 13 9 7 8 7 7 8 8 8
7 7 7 7 6 6 6 7 7 7 7 6 6 6 6 6 5 7 11 10 11 15 14 13 12 9 8 7 7 14 13 10 11 10 15 16 19 16 18 17 16 12 8 11 11 9 8 8 7 6 6 8 7 7
7 7 6 6 6 6 6 6 6 6 6 6 6 5 5 5 5 6 11 10 10 13 17 15 9 10 8 8 7 8 8 8 10 14 17 17 17 13 17 14 15 12 11 11 11 9 8 7 7 8 7 7 7 7
6 6 6 6 7 7 6 5 6 6 6 6 6 6 6 6 5 8 9 8 9 11 17 14 10 8 8 8 8 8 9 11 15 14 17 16 12 13 13 14 13 10 11 12 13 10 9 8 7 7 8 8 7 8
6 7 7 7 7 6 6 6 6 6 5 6 5 5 5 5 5 10 14 8 6 8 16 20 11 10 9 8 8 8 8 11 13 13 14 12 10 9 13 15 10 9 7 7 9 7 7 7 6 7 8 7 7 7
7 7 6 6 5 5 5 6 5 5 5 4 4 4 4 4 9 11 12 8 4 7 14 17 17 11 9 9 9 9 10 12 12 12 11 11 11 8 11 13 9 8 7 7 6 7 8 8 9 7 7 6 6 7
5 5 5 4 4 5 5 5 4 4 4 4 4 4 4 3 5 8 6 2 5 9 8 14 19 15 9 13 13 10 13 14 13 12 11 10 11 10 13 10 9 7 7 7 7 6 8 8 9 9 8 7 8 8
4 4 3 4 4 4 4 4 4 3 4 3 3 3 6 8 11 7 2 3 6 10 20 13 17 19 10 13 13 12 12 16 11 12 11 10 13 12 10 9 8 7 8 8 8 8 9 9 10 10 9 8 8 8
3 3 3 3 3 3 3 3 3 3 3 3 7 9 14 9 3 4 8 11 12 8 11 12 12 16 12 14 15 16 16 12 13 13 8 11 12 8 7 7 7 7 7 7 10 10 10 10 11 11 9 8 8 8
3 3 3 2 2 2 2 2 2 2 3 8 12 12 8 4 9 13 19 18 19 18 15 11 12 14 9 13 14 13 17 19 21 14 12 12 13 8 6 7 7 7 7 8 8 8 8 8 10 10 9 8 7 7
2 2 2 2 2 2 1 1 1 6 7 7 7 7 9 14 18 20 25 20 19 17 14 12 10 10 11 11 13 13 15 16 18 10 12 14 9 7 7 7 7 7 7 8 7 7 8 9 9 9 8 8 8 7
2 2 1 1 1 1 1 1 1 2 3 7 11 16 16 19 21 23 25 21 19 12 11 10 11 12 10 11 15 12 16 15 9 14 13 10 8 7 8 7 7 7 6 6 8 7 8 8 8 8 8 8 8 7
2 2 1 1 1 1 0 -0 1 2 7 13 18 20 20 24 20 20 17 15 11 11 11 10 11 11 11 13 17 16 14 12 13 14 13 11 9 8 8 7 8 8 7 7 7 7 7 8 8 8 8 8 8 7
1 1 1 1 1 0 0 0 1 4 8 15 17 20 19 14 16 13 14 14 10 9 9 12 12 13 17 16 15 15 16 13 12 12 11 10 9 9 9 8 8 9 8 7 7 8 8 9 9 9 9 9 7 6
1 1 3 0 -0 0 0 1 3 5 8 14 14 14 12 13 15 14 11 13 10 10 9 11 17 15 17 16 16 12 13 13 11 9 9 9 7 8 9 8 8 8 8 8 7 8 8 9 9 8 8 7 7 7
1 5 0 -0 -0 -0 0 5 7 10 13 15 15 9 11 11 11 12 9 9 7 10 13 15 17 16 13 14 14 9 11 9 8 9 9 8 6 7 8 8 8 7 7 7 7 7 7 7 7 7 8 7 7 7
5 3 -1 -1 1 1 4 5 11 12 15 9 10 10 10 9 10 9 9 7 8 10 9 11 10 16 16 17 12 9 9 8 8 9 8 7 7 7 6 8 8 7 7 7 7 7 7 7 8 8 7 7 7 7
3 2 -1 -1 2 6 7 6 9 14 12 9 9 9 9 9 8 7 7 7 8 7 7 9 12 11 10 9 9 9 8 8 9 8 8 7 7 7 7 7 7 8 8 8 8 8 7 7 8 7 7 7 7 7
-1 -1 -2 -1 2 11 15 10 5 8 12 9 8 9 8 8 7 7 8 10 9 8 9 11 11 9 8 7 8 8 7 7 8 9 8 7 7 7 7 8 8 8 8 8 8 6 8 8 8 8 8 8 8 8
0 0 -1 2 5 9 11 13 8 7 7 9 8 8 8 8 9 11 10 8 11 9 10 8 9 7 6 6 7 7 7 7 7 8 7 7 7 8 8 8 8 8 9 9 9 9 8 10 9 9 8 9 9 8
3 -0 4 2 6 5 7 7 9 6 8 8 9 8 10 10 9 10 10 10 9 8 9 8 7 6 7 7 6 6 6 6 6 6 4 6 8 8 8 8 8 8 8 8 8 9 8 8 9 9 9 8 7 8
2 3 5 5 9 8 12 5 7 7 10 14 10 12 13 11 9 7 9 8 8 7 6 6 6 6 6 6 5 5 6 7 7 7 7 7 8 8 8 8 8 8 8 8 8 8 7 5 6 7 7 7 6 6
2 8 8 9 15 14 12 11 9 10 9 13 14 16 13 11 8 10 10 9 8 8 7 7 7 8 8 7 8 7 6 7 7 7 7 8 9 8 8 7 7 7 7 7 7 7 7 6 4 6 6 6 6 6
12 9 9 16 13 14 15 16 14 11 16 12 12 14 12 9 12 12 10 9 9 9 8 8 8 8 8 9 8 7 6 7 8 8 8 7 7 8 8 7 6 5 5 6 6 6 6 5 5 5 5 5 5 5
17 14 11 14 14 12 12 15 13 11 11 15 11 10 10 12 14 13 10 9 10 9 9 8 8 9 9 8 8 8 7 7 7 8 7 7 7 8 7 7 7 6 5 5 6 6 6 6 5 6 6 5 3 5
17 14 11 9 9 10 11 10 10 12 13 14 14 14 15 17 15 10 8 9 9 8 7 8 8 8 8 8 8 6 6 7 7 7 6 5 5 5 6 7 7 6 5 5 5 5 6 6 6 6 6 6 6 6
12 11 12 10 10 9 13 15 13 12 11 11 11 14 15 13 12 9 8 7 7 6 6 5 5 6 7 7 7 6 6 6 5 6 6 6 6 6 6 6 6 3 5 5 5 5 6 6 6 6 6 6 6 6
11 10 11 16 12 11 11 10 11 9 8 9 11 12 11 9 8 8 7 7 5 5 6 6 6 6 6 6 6 6 6 6 7 8 9 9 9 7 6 6 6 6 6 6 3 4 5 6 6 6 6 6 6 6
10 9 13 13 15 14 10 9 9 9 9 8 8 9 9 9 7 7 7 7 7 7 6 6 6 7 7 8 8 7 7 6 6 7 8 8 8 7 7 7 6 6 7 7 6 6 4 4 4 4 5 5 5 5
9 10 13 13 14 11 9 8 8 8 8 9 8 9 9 8 8 7 7 7 6 7 7 8 7 7 7 8 8 8 7 6 6 6 5 6 6 6 6 6 6 6 6 5 6 6 5 5 5 5 5 6 6 6
11 12 12 15 14 11 10 10 10 10 11 11 11 11 9 9 10 8 7 7 8 8 6 6 8 7 7 7 6 6 3 6 6 6 5 6 6 6 6 6 5 5 5 5 4 4 4 4 4 5 5 6 5 6
10 10 10 11 14 14 11 11 12 13 13 13 11 10 9 9 10 7 7 7 7 7 8 7 7 7 7 6 6 6 4 6 5 3 2 3 3 4 5 4 3 3 4 4 4 4 4 5 5 5 5 6 6 6